Starlink 1010

operational
NORAD ID: 44716 Int'l Des: 2019-074 Owner: SPXS Country: US Constellation: starlink
LEOCIRCULAR

Starlink 1010について

説明を読み込み中...

リアルタイム位置

3D地球を読み込み中...

次回通過

高度履歴

Altitude vs Time

uPlot chart will show altitude changes over time

軌道要素

1 44716U 19074D 25304.33336806 .00486755 11302-3 95848-3 0 9991
2 44716 53.0420 332.7992 0005459 58.3982 91.4497 15.99497267 5986
Epoch: Oct 31, 2025 • Age: 9 hours

現在のステータス

高度 278.0 km
速度 7.75 km/s
衛星直下点 52.88°N, 121.04°E
打ち上げ日 Nov 11, 2019
運用期間 5.9 years
タイプ internet

技術仕様

分類 Payload
質量 260.00 kg
乾燥質量 248.00 kg
総質量 260.00 kg
長さ 0.20 m
直径 2.80 m
スパン 9.00 m
形状 Box + pan
製造者 SPXS
バスタイプ Starlink
フェーズステータス In Orbit
所有者/国 SPXS/US

大規模コンステレーション

Loading constellations...